Location: *
(42.3442°N, 9.2072°E)
Time: 10:54:11
(UTC+00:00)

Meteor 2-10 Rocket - Pass Details

Date: 10 August 2020
Orbit: 734 x 884 km, 81.2° (Epoch: 22 September)

Event Time Altitude Azimuth Distance (km) Brightness Sun altitude
Rises 02:52:46 0° 131° (SE) 3,204 6.9 -15.6°
Reaches altitude 10° 02:57:07 10° 95° (E) 2,321 6.7 -14.9°
Maximum altitude 02:58:22 11° 81° (E) 2,275 6.9 -14.8°
Drops below altitude 10° 02:59:38 10° 67° (ENE) 2,348 7.3 -14.6°
Sets 03:04:07 0° 32° (NNE) 3,328 8.2 -13.9°
